Plattsburgh, NY

1:23 AM EST on December 16, 2019 (GMT -0500)
Plattsburgh International

Weather History for KPBG - October, 2019

Change the Weather History Date:

Thursday, October 17, 2019

  Actual Average Record
Temperature  
Mean Temperature 47 °F 47 °F  
Max Temperature 50 °F 57 °F 75 °F (1951)
Min Temperature 44 °F 37 °F 24 °F (1978)
Degree Days  
Heating Degree Days 18 18  
Month to date heating degree days 248 259  
Since 1 July heating degree days 440 494  
Cooling Degree Days 0 0  
Month to date cooling degree days 0 0  
Year to date cooling degree days 406 345  
Moisture  
Dew Point 43 °F    
Average Humidity 89    
Maximum Humidity 96    
Minimum Humidity 80    
Precipitation  
Precipitation 1.57 in - 2.25 in (1977)
Month to date precipitation 3.07 0.00  
Year to date precipitation 24.69  
Sea Level Pressure  
Sea Level Pressure 29.23 in    
Wind  
Wind Speed 17 mph ()    
Max Wind Speed 36 mph    
Max Gust Speed 47 mph    
Visibility 7.4 miles    
Events Rain    
T = Trace of Precipitation, MM = Missing Value Source: Averaged Metar Reports

Daily Weather History Graph

Daily Weather History Graph

Search for Another Location

Airport or City:

Astronomy

Oct. 17, 2019 Rise Set
Actual Time 7:11 AM EDT 6:06 PM EDT
Civil Twilight 6:41 AM EDT 6:35 PM EDT
Nautical Twilight 6:08 AM EDT 7:09 PM EDT
Astronomical Twilight 5:34 AM EDT 7:43 PM EDT
Moon 8:28 PM EDT (10/17) 10:47 AM EDT (10/17)
Length of Visible Light 11h 53m
Length of Day
10h 54m
Waning Gibbous, 87% of the Moon is Illuminated
Oct 17
Waning Gibbous
Oct 21
Last Quarter
Oct 27
New
Nov 4
First Quarter
Nov 12
Full

Hourly Weather History & Observations

Time (EDT) Temp. Windchill Dew Point Humidity Pressure Visibility Wind Dir Wind Speed Gust Speed Precip Events Conditions
12:53 AM 50.0 °F - 46.9 °F 89% 29.42 in 7.0 mi NE 10.4 mph - 0.10 in Rain Rain
1:53 AM 50.0 °F - 46.9 °F 89% 29.38 in 6.0 mi NNE 10.4 mph - 0.12 in Rain Rain
2:10 AM 50.0 °F - 48.0 °F 93% 29.37 in 5.0 mi North 9.2 mph - 0.05 in Rain Rain
2:17 AM 50.0 °F - 48.0 °F 93% 29.36 in 5.0 mi North 12.7 mph - 0.07 in Rain Heavy Rain
2:53 AM 48.9 °F - 46.9 °F 93% 29.32 in 7.0 mi North 15.0 mph - 0.17 in Rain Rain
3:03 AM 48.0 °F - 46.9 °F 96% 29.31 in 5.0 mi North 16.1 mph - 0.02 in Rain Rain
3:53 AM 48.0 °F - 46.0 °F 93% 29.29 in 4.0 mi North 18.4 mph - 0.23 in Rain Heavy Rain
4:41 AM 48.0 °F - 46.0 °F 93% 29.24 in 5.0 mi North 18.4 mph 27.6 mph 0.11 in Rain Rain
4:53 AM 48.0 °F - 46.0 °F 93% 29.24 in 5.0 mi North 23.0 mph 28.8 mph 0.13 in Rain Rain
5:30 AM 46.9 °F - 45.0 °F 93% 29.21 in 3.0 mi North 23.0 mph 34.5 mph 0.12 in Rain Heavy Rain
5:53 AM 46.9 °F - 45.0 °F 93% 29.18 in 8.0 mi North 25.3 mph 33.4 mph 0.19 in Rain Rain
6:19 AM 46.9 °F - 44.1 °F 90% 29.14 in 7.0 mi North 25.3 mph 35.7 mph 0.07 in Rain Rain
6:35 AM 46.9 °F - 44.1 °F 90% 29.13 in 10.0 mi North 27.6 mph 40.3 mph 0.08 in Rain Light Rain
6:53 AM 46.9 °F - 44.1 °F 90% 29.11 in 10.0 mi North 27.6 mph 40.3 mph 0.09 in Rain Light Rain
7:53 AM 46.0 °F 36.7 °F 43.0 °F 89% 29.09 in 10.0 mi North 29.9 mph 41.4 mph 0.00 in Rain Light Rain
8:17 AM 46.0 °F 36.5 °F 43.0 °F 89% 29.08 in 10.0 mi North 31.1 mph 43.7 mph 0.00 in Rain Light Rain
8:40 AM 46.0 °F 37.0 °F 42.1 °F 86% 29.08 in 10.0 mi North 27.6 mph 40.3 mph 0.00 in   Overcast
8:53 AM 46.0 °F 36.7 °F 42.1 °F 86% 29.09 in 10.0 mi North 29.9 mph 47.2 mph 0.00 in Rain Light Rain
9:24 AM 46.0 °F 36.4 °F 42.1 °F 86% 29.08 in 9.0 mi North 32.2 mph 43.7 mph 0.00 in Rain Light Rain
9:53 AM 45.0 °F 34.7 °F 43.0 °F 93% 29.08 in 2.5 mi North 33.4 mph 46.0 mph 0.03 in Rain Heavy Rain
10:22 AM 45.0 °F 35.1 °F 42.1 °F 90% 29.07 in 3.0 mi North 31.1 mph 44.9 mph 0.07 in Rain Rain
10:53 AM 45.0 °F 35.8 °F 42.1 °F 90% 29.07 in 4.0 mi NNW 26.5 mph 39.1 mph 0.10 in Rain Rain
11:53 AM 45.0 °F 35.6 °F 42.1 °F 90% 29.08 in 4.0 mi NNW 27.6 mph 38.0 mph 0.09 in Rain Rain
12:53 PM 45.0 °F 36.0 °F 41.0 °F 86% 29.10 in 3.0 mi NNW 25.3 mph 32.2 mph 0.09 in Rain Rain
1:53 PM 45.0 °F 36.9 °F 42.1 °F 90% 29.12 in 8.0 mi NNW 20.7 mph 28.8 mph 0.08 in Rain Rain
2:53 PM 46.0 °F 39.3 °F 42.1 °F 86% 29.16 in 6.0 mi NW 16.1 mph 26.5 mph 0.07 in Rain Light Rain
3:29 PM 46.0 °F 39.6 °F 43.0 °F 89% 29.18 in 9.0 mi NW 15.0 mph 24.2 mph 0.03 in Rain Light Rain
3:53 PM 46.0 °F 40.2 °F 43.0 °F 89% 29.20 in 10.0 mi NW 12.7 mph 25.3 mph 0.03 in Rain Light Rain
4:53 PM 46.0 °F 39.6 °F 42.1 °F 86% 29.25 in 8.0 mi NW 15.0 mph 24.2 mph 0.02 in Rain Light Rain
5:53 PM 45.0 °F 37.9 °F 39.9 °F 82% 29.31 in 10.0 mi NNW 16.1 mph 25.3 mph 0.03 in Rain Light Rain
6:53 PM 44.1 °F 37.7 °F 39.9 °F 85% 29.35 in 10.0 mi NW 12.7 mph 24.2 mph 0.00 in Rain Light Rain
7:53 PM 44.1 °F 40.1 °F 41.0 °F 89% 29.38 in 10.0 mi NW 6.9 mph 18.4 mph 0.00 in   Overcast
8:53 PM 45.0 °F 40.6 °F 41.0 °F 86% 29.41 in 10.0 mi NW 8.1 mph - 0.00 in Rain Light Rain
9:11 PM 45.0 °F 41.2 °F 41.0 °F 86% 29.41 in 10.0 mi WNW 6.9 mph - 0.00 in Rain Light Rain
9:53 PM 45.0 °F 39.7 °F 41.0 °F 86% 29.44 in 10.0 mi NW 10.4 mph - 0.00 in   Overcast
10:53 PM 46.0 °F 41.9 °F 41.0 °F 83% 29.46 in 10.0 mi NW 8.1 mph - 0.00 in   Mostly Cloudy
11:53 PM 46.9 °F - 41.0 °F 80% 29.48 in 10.0 mi NW 11.5 mph - 0.00 in   Overcast